Ellington Field, TX

3:47 PM CDT on October 17, 2019 (GMT -0500)
Ellington

Weather History for KEFD - September, 2019

Change the Weather History Date:

Friday, September 20, 2019

  Actual Average Record
Temperature  
Mean Temperature 82 °F -  
Max Temperature 87 °F 85 °F 98 °F (1999)
Min Temperature 77 °F 68 °F 35 °F (2004)
Cooling Degree Days 17    
Growing Degree Days 32 (Base 50)    
Moisture  
Dew Point 74 °F    
Average Humidity 82    
Maximum Humidity 94    
Minimum Humidity 62    
Precipitation  
Precipitation 0.00 in - - ()
Sea Level Pressure  
Sea Level Pressure 29.97 in    
Wind  
Wind Speed 5 mph ()    
Max Wind Speed 21 mph    
Max Gust Speed 25 mph    
Visibility 9.8 miles    
Events Rain    
Averages and records for this station are not official NWS values.
T = Trace of Precipitation, MM = Missing Value Source: Averaged Metar Reports

Daily Weather History Graph

Daily Weather History Graph

Search for Another Location

Airport or City:

Astronomy

Sep. 20, 2019 Rise Set
Actual Time 7:07 AM CDT 7:19 PM CDT
Civil Twilight 6:44 AM CDT 7:43 PM CDT
Nautical Twilight 6:16 AM CDT 8:11 PM CDT
Astronomical Twilight 5:48 AM CDT 8:39 PM CDT
Moon 11:36 PM CDT (9/20) 12:48 PM CDT (9/20)
Length of Visible Light 12h 59m
Length of Day
12h 12m
Waning Gibbous, 65% of the Moon is Illuminated
Sep 20
Waning Gibbous
Sep 21
Last Quarter
Sep 28
New
Oct 5
First Quarter
Oct 13
Full

Hourly Weather History & Observations

Time (CDT) Temp. Heat Index Dew Point Humidity Pressure Visibility Wind Dir Wind Speed Gust Speed Precip Events Conditions
12:50 AM 78.8 °F - 73.4 °F 83% 29.92 in 10.0 mi SSE 5.8 mph - N/A   Mostly Cloudy
1:50 AM 77.0 °F - 73.4 °F 89% 29.92 in 10.0 mi Calm Calm - N/A   Mostly Cloudy
2:50 AM 77.0 °F - 73.4 °F 89% 29.92 in 10.0 mi Calm Calm - N/A   Mostly Cloudy
3:50 AM 78.8 °F - 75.2 °F 89% 29.92 in 10.0 mi SE 4.6 mph - N/A   Mostly Cloudy
4:50 AM 78.8 °F - 75.2 °F 89% 29.92 in 10.0 mi SE 3.5 mph - N/A   Mostly Cloudy
5:50 AM 78.8 °F - 75.2 °F 89% 29.93 in 10.0 mi ESE 3.5 mph - N/A   Mostly Cloudy
6:50 AM 77.0 °F - 73.4 °F 89% 29.94 in 10.0 mi Calm Calm - N/A   Mostly Cloudy
7:50 AM 78.8 °F - 75.2 °F 89% 29.96 in 10.0 mi East 3.5 mph - N/A   Mostly Cloudy
8:50 AM 82.4 °F 90.9 °F 77.0 °F 84% 29.98 in 10.0 mi SE 9.2 mph - N/A   Mostly Cloudy
9:50 AM 86.0 °F 96.9 °F 77.0 °F 74% 29.99 in 10.0 mi SE 10.4 mph - N/A   Mostly Cloudy
10:50 AM 78.8 °F - 77.0 °F 94% 30.00 in 8.0 mi East 10.4 mph - N/A   Mostly Cloudy
11:50 AM 78.8 °F - 77.0 °F 94% 30.01 in 10.0 mi ESE 11.5 mph - N/A   Mostly Cloudy
12:50 PM 78.8 °F - 71.6 °F 78% 30.01 in 10.0 mi SSE 13.8 mph - N/A   Mostly Cloudy
1:50 PM 80.6 °F 86.2 °F 75.2 °F 84% 30.00 in - East 3.5 mph - N/A   Mostly Cloudy
2:50 PM 84.2 °F 92.3 °F 75.2 °F 74% 29.98 in 10.0 mi ESE 10.4 mph - N/A   Mostly Cloudy
3:50 PM 82.4 °F 87.2 °F 71.6 °F 70% 29.98 in 10.0 mi ESE 11.5 mph - N/A   Mostly Cloudy
4:50 PM 87.8 °F 95.6 °F 73.4 °F 62% 29.98 in 10.0 mi ESE 11.5 mph - N/A   Mostly Cloudy
5:50 PM 84.2 °F 92.3 °F 75.2 °F 74% 29.98 in 10.0 mi ESE 6.9 mph - N/A   Mostly Cloudy
6:05 PM 84.2 °F 90.9 °F 73.4 °F 70% 29.98 in 7.0 mi South 20.7 mph 25.3 mph N/A Rain Rain
7:50 PM 80.6 °F 85.4 °F 73.4 °F 79% 29.98 in 10.0 mi ENE 3.5 mph - N/A   Mostly Cloudy
10:50 PM 80.6 °F 85.4 °F 73.4 °F 79% 30.04 in 10.0 mi ESE 10.4 mph - N/A   Mostly Cloudy
11:50 PM 80.6 °F 85.4 °F 73.4 °F 79% 30.03 in 10.0 mi ESE 8.1 mph - N/A   Mostly Cloudy